Volver al catálogo

STARLINK-31320

ActivoComunicacionesVLEO
NORAD 58886·PAYLOAD·🇺🇸 United States

Lanzado Jan 29, 2024 desde Vandenberg Space Force Base

Loading…

Próximos Pases (próximas 24 horas)

TLE

ActualizadoSource: CelesTrak SupGP

Época: Sep 14, 2026, 22:13 UTC

1 58886C 24020L   26257.92618056 -.00071703  00000+0 -21179-2 0  2570
2 58886  53.1567 159.4347 0001306  98.9077 149.6162 15.34435251    10

Sigue STARLINK-31320 en tiempo real con AllMySat

Download on the App Store